EN

Hourly Weather Almirante Tamandare

Today, 18 January, Monday

Time Temperature Precipitation Wind Pressure Humidity
00:00 +20°C° 1 mm 2 mps 674 mmHg 97%
01:00 +20°C° 0.1 mm 2 mps 674 mmHg 97%
02:00 +20°C° 0.1 mm 2 mps 674 mmHg 97%
03:00 +21°C° 0 mm 1 mps 674 mmHg 96%
04:00 +21°C° 0.2 mm 1 mps 674 mmHg 96%
05:00 +21°C° 0.2 mm 1 mps 674 mmHg 96%
06:00 +21°C° 0.2 mm 1 mps 674 mmHg 97%
07:00 +21°C° 0.4 mm 1 mps 674 mmHg 96%
08:00 +22°C° 0.4 mm 1 mps 675 mmHg 94%
09:00 +22°C° 0 mm 1 mps 676 mmHg 97%
10:00 +22°C° 1.1 mm 1 mps 676 mmHg 96%
11:00 +22°C° 1.1 mm 1 mps 676 mmHg 96%
12:00 +22°C° 1.1 mm 1 mps 676 mmHg 95%
13:00 +23°C° 1.1 mm 1 mps 676 mmHg 94%
14:00 +23°C° 1.1 mm 1 mps 676 mmHg 94%
15:00 +23°C° 1.1 mm 2 mps 676 mmHg 93%
16:00 +21°C° 1.7 mm 2 mps 676 mmHg 94%
17:00 +21°C° 1.7 mm 2 mps 676 mmHg 95%
18:00 +20°C° 1.7 mm 2 mps 675 mmHg 96%
19:00 +19°C° 3.3 mm 2 mps 676 mmHg 97%
20:00 +19°C° 3.3 mm 2 mps 676 mmHg 97%
21:00 +19°C° 3.3 mm 3 mps 677 mmHg 97%
22:00 +19°C° 2.7 mm 3 mps 677 mmHg 97%
23:00 +18°C° 2.7 mm 2 mps 677 mmHg 97%

Tomorrow, 19 January, Tuesday

Time Temperature Precipitation Wind Pressure Humidity
00:00 +18°C° 2.7 mm 2 mps 677 mmHg 97%
01:00 +18°C° 2.6 mm 2 mps 677 mmHg 97%
02:00 +18°C° 2.6 mm 2 mps 677 mmHg 98%
03:00 +18°C° 2.6 mm 2 mps 677 mmHg 98%
04:00 +18°C° 3 mm 2 mps 677 mmHg 97%
05:00 +18°C° 3 mm 2 mps 677 mmHg 97%
06:00 +18°C° 3 mm 2 mps 677 mmHg 97%
07:00 +18°C° 1.9 mm 2 mps 677 mmHg 97%
08:00 +18°C° 1.9 mm 2 mps 678 mmHg 97%
09:00 +18°C° 1.9 mm 2 mps 678 mmHg 96%
10:00 +19°C° 2.2 mm 1 mps 679 mmHg 96%
11:00 +19°C° 2.2 mm 1 mps 679 mmHg 96%
12:00 +19°C° 2.2 mm 1 mps 679 mmHg 96%
13:00 +19°C° 0.4 mm 1 mps 678 mmHg 96%
14:00 +19°C° 0.4 mm 1 mps 678 mmHg 96%
15:00 +20°C° 0.4 mm 1 mps 678 mmHg 95%
16:00 +20°C° 0.1 mm 1 mps 678 mmHg 95%
17:00 +20°C° 0.1 mm 1 mps 678 mmHg 95%
18:00 +20°C° 0.1 mm 1 mps 678 mmHg 95%
19:00 +19°C° 0.2 mm 1 mps 678 mmHg 96%
20:00 +19°C° 0.2 mm 1 mps 678 mmHg 96%
21:00 +19°C° 0.2 mm 1 mps 679 mmHg 97%
22:00 +19°C° 0.1 mm 1 mps 679 mmHg 97%
23:00 +19°C° 0.1 mm 1 mps 679 mmHg 97%

Day after tomorrow, 20 January, Wednesday

Time Temperature Precipitation Wind Pressure Humidity
00:00 +19°C° 0.1 mm 1 mps 679 mmHg 97%
01:00 +19°C° 0.2 mm 1 mps 678 mmHg 98%
02:00 +19°C° 0.2 mm 1 mps 678 mmHg 98%
03:00 +19°C° 0.2 mm 1 mps 678 mmHg 98%
04:00 +19°C° 0.9 mm 1 mps 678 mmHg 98%
05:00 +19°C° 0.9 mm 1 mps 678 mmHg 98%
06:00 +19°C° 0.9 mm 1 mps 678 mmHg 98%
07:00 +20°C° 0.2 mm 1 mps 678 mmHg 97%
08:00 +20°C° 0.2 mm 1 mps 678 mmHg 95%
09:00 +21°C° 0.2 mm 1 mps 679 mmHg 94%
10:00 +22°C° 0.3 mm 1 mps 679 mmHg 91%
11:00 +21°C° 0.3 mm 2 mps 679 mmHg 88%
12:00 +23°C° 0.3 mm 2 mps 679 mmHg 85%
13:00 +23°C° 1.2 mm 2 mps 679 mmHg 86%
14:00 +23°C° 1.2 mm 2 mps 678 mmHg 87%
15:00 +22°C° 1.2 mm 3 mps 678 mmHg 88%
16:00 +21°C° 2.2 mm 3 mps 678 mmHg 91%
17:00 +20°C° 2.2 mm 3 mps 678 mmHg 94%
18:00 +19°C° 2.2 mm 3 mps 677 mmHg 97%
19:00 +19°C° 6.7 mm 2 mps 678 mmHg 97%
20:00 +18°C° 6.7 mm 2 mps 678 mmHg 97%
21:00 +18°C° 6.7 mm 2 mps 678 mmHg 97%
22:00 +18°C° 3.1 mm 2 mps 679 mmHg 97%
23:00 +18°C° 3.1 mm 2 mps 679 mmHg 98%

21 January, Thursday

Time Temperature Precipitation Wind Pressure Humidity
00:00 +18°C° 3.1 mm 2 mps 679 mmHg 98%
01:00 +19°C° 0.4 mm 1 mps 678 mmHg 97%
02:00 +19°C° 0.4 mm 1 mps 678 mmHg 97%
03:00 +19°C° 0.4 mm 1 mps 678 mmHg 97%
04:00 +19°C° 0.2 mm 1 mps 678 mmHg 97%
05:00 +19°C° 0.2 mm 1 mps 678 mmHg 98%
06:00 +19°C° 0.2 mm 1 mps 678 mmHg 98%
07:00 +19°C° 0.3 mm 1 mps 679 mmHg 95%
08:00 +20°C° 0.3 mm 1 mps 679 mmHg 92%
09:00 +21°C° 0.3 mm 1 mps 680 mmHg 90%
10:00 +22°C° 0.4 mm 1 mps 680 mmHg 87%
11:00 +23°C° 0.4 mm 1 mps 680 mmHg 84%
12:00 +24°C° 0.4 mm 1 mps 680 mmHg 81%
13:00 +24°C° 1.1 mm 2 mps 680 mmHg 82%
14:00 +24°C° 1.1 mm 2 mps 679 mmHg 84%
15:00 +24°C° 1.1 mm 2 mps 679 mmHg 86%
16:00 +23°C° 0.7 mm 2 mps 679 mmHg 87%
17:00 +21°C° 0.7 mm 2 mps 679 mmHg 89%
18:00 +20°C° 0.7 mm 2 mps 679 mmHg 91%
19:00 +20°C° 0.2 mm 2 mps 679 mmHg 92%
20:00 +19°C° 0.2 mm 2 mps 680 mmHg 93%
21:00 +18°C° 0.2 mm 2 mps 680 mmHg 93%
22:00 +18°C° 0.3 mm 2 mps 680 mmHg 94%
23:00 +19°C° 0.3 mm 1 mps 680 mmHg 95%

22 January, Friday

Time Temperature Precipitation Wind Pressure Humidity
00:00 +19°C° 0.3 mm 1 mps 680 mmHg 96%
01:00 +19°C° 0.3 mm 1 mps 680 mmHg 96%
02:00 +17°C° 0.3 mm 0 mps 679 mmHg 97%
03:00 +17°C° 0.3 mm 0 mps 679 mmHg 97%
04:00 +17°C° 0.4 mm 0 mps 679 mmHg 97%
05:00 +17°C° 0.4 mm 0 mps 680 mmHg 97%
06:00 +17°C° 0.4 mm 0 mps 680 mmHg 97%
07:00 +19°C° 1.3 mm 1 mps 680 mmHg 97%
08:00 +19°C° 1.3 mm 1 mps 680 mmHg 97%
09:00 +19°C° 1.3 mm 1 mps 681 mmHg 97%
10:00 +20°C° 0.4 mm 1 mps 681 mmHg 94%
11:00 +21°C° 0.4 mm 1 mps 681 mmHg 92%
12:00 +21°C° 0.4 mm 1 mps 681 mmHg 90%
13:00 +22°C° 0.4 mm 1 mps 681 mmHg 88%
14:00 +22°C° 0.4 mm 1 mps 680 mmHg 87%
15:00 +22°C° 0.4 mm 1 mps 680 mmHg 86%
16:00 +21°C° 0.4 mm 2 mps 680 mmHg 88%
17:00 +20°C° 0.4 mm 2 mps 680 mmHg 90%
18:00 +19°C° 0.4 mm 2 mps 680 mmHg 93%
19:00 +19°C° 0.3 mm 2 mps 680 mmHg 94%
20:00 +18°C° 0.3 mm 2 mps 681 mmHg 95%
21:00 +18°C° 0.3 mm 2 mps 681 mmHg 96%
22:00 +18°C° 0.8 mm 2 mps 681 mmHg 96%
23:00 +19°C° 0.8 mm 1 mps 681 mmHg 97%

23 January, Saturday

Time Temperature Precipitation Wind Pressure Humidity
00:00 +19°C° 0.8 mm 1 mps 681 mmHg 97%
01:00 +19°C° 0 mm 1 mps 680 mmHg 97%
02:00 +19°C° 0 mm 1 mps 680 mmHg 97%
03:00 +18°C° 0 mm 1 mps 679 mmHg 96%
04:00 +18°C° 0 mm 1 mps 679 mmHg 97%
05:00 +18°C° 0 mm 1 mps 679 mmHg 97%
06:00 +18°C° 0 mm 1 mps 679 mmHg 97%
07:00 +19°C° 0 mm 1 mps 680 mmHg 95%
08:00 +20°C° 0 mm 1 mps 680 mmHg 93%
09:00 +20°C° 0 mm 1 mps 681 mmHg 91%
10:00 +21°C° 0.1 mm 2 mps 681 mmHg 85%
11:00 +23°C° 0.1 mm 2 mps 681 mmHg 80%
12:00 +24°C° 0.1 mm 2 mps 681 mmHg 74%
13:00 +24°C° 1 mm 2 mps 681 mmHg 77%
14:00 +24°C° 1 mm 2 mps 680 mmHg 80%
15:00 +24°C° 1 mm 2 mps 679 mmHg 84%
16:00 +23°C° 0.9 mm 2 mps 679 mmHg 86%
17:00 +21°C° 0.9 mm 2 mps 679 mmHg 89%
18:00 +20°C° 0.9 mm 2 mps 679 mmHg 92%
19:00 +20°C° 1.4 mm 2 mps 679 mmHg 93%
20:00 +20°C° 1.4 mm 1 mps 679 mmHg 95%
21:00 +20°C° 1.4 mm 1 mps 679 mmHg 97%
22:00 +19°C° 0.2 mm 1 mps 679 mmHg 97%
23:00 +19°C° 0.2 mm 1 mps 679 mmHg 96%
Show more